Weather History for Ashtabula, OH

Change the Weather History Date:

Friday, June 14, 2013

  Actual Average (KYNG) Record (KYNG)
Temperature  
Mean Temperature 62 °F 66 °F  
Max Temperature 69 °F 77 °F 95 °F (1943)
Min Temperature 55 °F 55 °F 38 °F (1968)
Degree Days  
Heating Degree Days 3 2  
Month to date heating degree days 47  
Since 1 June heating degree days 47  
Since 1 July heating degree days 6327  
Cooling Degree Days 0 3  
Month to date cooling degree days 35  
Year to date cooling degree days 74  
Since 1 June cooling degree days 35  
Growing Degree Days 12 (Base 50)    
Moisture  
Dew Point 54 °F    
Average Humidity 80    
Maximum Humidity 94    
Minimum Humidity 60    
Precipitation  
Precipitation 0.01 in 0.13 in 1.96 in (1989)
Month to date precipitation 1.79  
Year to date precipitation 16.58  
Snow  
Snow 0.00 in 0.00 in - ()
Month to date snowfall 0.0  
Since 1 June snowfall 0.0  
Since 1 July snowfall 62.7  
Snow Depth -    
Sea Level Pressure  
Sea Level Pressure 29.96 in    
Wind  
Wind Speed 3 mph (NW)    
Max Wind Speed 12 mph    
Max Gust Speed 18 mph    
Visibility 8 miles    
Events      
T = Trace of Precipitation, MM = Missing Value Source: NWS Daily Summary

Daily Weather History Graph

Daily Weather History Graph

Search for Another Location

Airport:

Trip Planner

Search our weather history database for the weather conditions in past years. The results will help you decide how hot, cold, wet, or windy it might be!

Date:

Astronomy

Jun. 14, 2013 Rise Set
Actual Time 5:47 AM EDT 8:59 PM EDT
Civil Twilight 5:13 AM EDT 9:33 PM EDT
Nautical Twilight 4:29 AM EDT 10:17 PM EDT
Astronomical Twilight 3:36 AM EDT 11:10 PM EDT
Moon 11:25 AM EDT (6/14) 12:00 AM EDT (6/14)
Length of Visible Light 16h 20m
Length of Day
15h 11m
Waxing Crescent, 30% of the Moon is Illuminated
Jun 14
Waxing Crescent
Jun 16
First Quarter
Jun 23
Full
Jun 30
Last Quarter
Jul 8
New

Hourly Weather History & Observations

Time (EDT) Temp. Dew Point Humidity Pressure Visibility Wind Dir Wind Speed Gust Speed Precip Events Conditions
12:13 AM 55.4 °F 53.6 °F 94% 29.85 in 1.8 mi Calm Calm - N/A   Partly Cloudy
12:23 AM 55.4 °F 53.6 °F 94% 29.85 in 3.0 mi Calm Calm - N/A   Partly Cloudy
12:27 AM 55.4 °F 53.6 °F 94% 29.85 in 1.8 mi Calm Calm - N/A   Partly Cloudy
12:31 AM 55.4 °F 51.8 °F 88% 29.85 in 0.8 mi Calm Calm - N/A   Mist
12:40 AM 55.4 °F 51.8 °F 88% 29.85 in 1.2 mi Calm Calm - N/A   Scattered Clouds
12:53 AM 55.9 °F 52.0 °F 87% 29.85 in 1.0 mi Calm Calm - N/A   Scattered Clouds
12:57 AM 55.4 °F 51.8 °F 88% 29.85 in 2.0 mi Calm Calm - N/A   Scattered Clouds
1:05 AM 55.4 °F 51.8 °F 88% 29.85 in 1.0 mi Calm Calm - N/A   Partly Cloudy
1:12 AM 55.4 °F 51.8 °F 88% 29.85 in 2.5 mi Calm Calm - N/A   Scattered Clouds
1:19 AM 55.4 °F 53.6 °F 94% 29.85 in 5.0 mi Calm Calm - N/A   Scattered Clouds
1:53 AM 55.9 °F 53.1 °F 90% 29.85 in 8.0 mi WNW 4.6 mph - N/A   Partly Cloudy
2:53 AM 55.9 °F 53.1 °F 90% 29.85 in 10.0 mi NW 4.6 mph - N/A   Clear
3:53 AM 55.9 °F 53.1 °F 90% 29.86 in 10.0 mi NW 4.6 mph - N/A   Clear
4:53 AM 55.9 °F 52.0 °F 87% 29.87 in 10.0 mi NNW 5.8 mph - N/A   Clear
5:53 AM 55.9 °F 53.1 °F 90% 29.88 in 8.0 mi NNW 4.6 mph - 0.01 in   Clear
6:38 AM 55.4 °F 53.6 °F 94% 29.91 in 7.0 mi Calm Calm - N/A   Partly Cloudy
6:53 AM 55.9 °F 53.1 °F 90% 29.91 in 6.0 mi Calm Calm - N/A   Mostly Cloudy
7:26 AM 57.2 °F 53.6 °F 88% 29.92 in 7.0 mi Calm Calm - N/A   Overcast
7:53 AM 57.9 °F 55.0 °F 90% 29.94 in 9.0 mi NNW 3.5 mph - N/A   Overcast
8:53 AM 59.0 °F 55.0 °F 87% 29.96 in 10.0 mi NNW 4.6 mph - N/A   Overcast
9:45 AM 62.6 °F 55.4 °F 77% 29.98 in 10.0 mi Calm Calm - N/A   Overcast
9:53 AM 62.1 °F 57.0 °F 84% 29.99 in 10.0 mi North 4.6 mph - N/A   Overcast
10:53 AM 63.0 °F 55.0 °F 75% 30.01 in 10.0 mi NNW 5.8 mph - N/A   Overcast
11:53 AM 63.0 °F 55.9 °F 78% 30.03 in 10.0 mi NNW 5.8 mph - N/A   Overcast
12:20 PM 62.6 °F 55.4 °F 77% 30.03 in 10.0 mi NW 6.9 mph - N/A   Overcast
12:53 PM 64.0 °F 55.0 °F 73% 30.04 in 10.0 mi NNW 6.9 mph - N/A   Overcast
1:53 PM 66.0 °F 55.9 °F 70% 30.03 in 10.0 mi Variable 6.9 mph - N/A   Mostly Cloudy
2:53 PM 69.1 °F 55.9 °F 63% 30.03 in 10.0 mi NW 8.1 mph - N/A   Scattered Clouds
3:09 PM 66.2 °F 55.4 °F 68% 30.04 in 10.0 mi NNW 11.5 mph 18.4 mph N/A   Mostly Cloudy
3:53 PM 66.9 °F 55.9 °F 68% 30.03 in 10.0 mi WNW 10.4 mph - N/A   Overcast
4:44 PM 68.0 °F 55.4 °F 64% 30.03 in 10.0 mi NW 9.2 mph - N/A   Scattered Clouds
4:53 PM 66.9 °F 55.9 °F 68% 30.03 in 10.0 mi NW 11.5 mph 17.3 mph N/A   Mostly Cloudy
5:01 PM 68.0 °F 55.4 °F 64% 30.03 in 10.0 mi NW 10.4 mph - N/A   Scattered Clouds
5:12 PM 68.0 °F 55.4 °F 64% 30.03 in 10.0 mi NW 9.2 mph - N/A   Mostly Cloudy
5:22 PM 66.2 °F 55.4 °F 68% 30.03 in 10.0 mi NW 10.4 mph - N/A   Partly Cloudy
5:53 PM 66.0 °F 53.1 °F 63% 30.03 in 10.0 mi WNW 10.4 mph - N/A   Clear
6:53 PM 66.0 °F 52.0 °F 60% 30.03 in 10.0 mi WNW 9.2 mph - N/A   Clear
7:53 PM 64.0 °F 51.1 °F 63% 30.04 in 10.0 mi NW 9.2 mph - N/A   Clear
8:53 PM 61.0 °F 51.1 °F 70% 30.05 in 10.0 mi WNW 4.6 mph - N/A   Clear
9:53 PM 57.0 °F 52.0 °F 83% 30.05 in 10.0 mi Calm Calm - N/A   Clear
10:53 PM 55.9 °F 50.0 °F 80% 30.07 in 10.0 mi WNW 3.5 mph - N/A   Clear
11:53 PM 55.0 °F 50.0 °F 83% 30.08 in 10.0 mi Calm Calm - N/A   Clear